| time (UTC) | temp C | wind direction | speed KPH | gust KPH | rain 1hr cm | rain 24hr cm | rain mn cm | humidity % | barometer mb |
| 20260506193307 | 0 | 130 | 4.8 | 0.0 | 0.00 | 0.00 | 0.00 | 10 | 1011.0 |
| 20260506190306 | 1 | 110 | 4.8 | 0.0 | 0.00 | 0.00 | 0.00 | 93 | 1011.0 |
| 20260506183307 | 1 | 0 | 3.2 | 0.0 | 0.00 | 0.00 | 0.00 | 93 | 1011.0 |
| 20260506180307 | 2 | 10 | 4.8 | 0.0 | 0.00 | 0.00 | 0.00 | 86 | 1011.0 |
| 20260506173308 | 2 | 210 | 4.8 | 0.0 | 0.00 | 0.00 | 0.00 | 86 | 1010.0 |
| 20260506170307 | 3 | 220 | 4.8 | 0.0 | 0.00 | 0.00 | 0.00 | 75 | 1010.0 |
| 20260506163307 | 5 | 190 | 4.8 | 0.0 | 0.00 | 0.00 | 0.00 | 70 | 1010.0 |
| 20260506160307 | 3 | 270 | 8.0 | 0.0 | 0.00 | 0.00 | 0.00 | 75 | 1010.0 |
| 20260506153307 | 5 | 250 | 9.7 | 0.0 | 0.00 | 0.00 | 0.00 | 75 | 1010.0 |
| 20260506150307 | 5 | 240 | 9.7 | 0.0 | 0.00 | 0.00 | 0.00 | 70 | 1010.0 |
| 20260506143307 | 5 | 250 | 9.7 | 0.0 | 0.00 | 0.00 | 0.00 | 75 | 1009.0 |
| 20260506140307 | 3 | 300 | 8.0 | 0.0 | 0.00 | 0.00 | 0.00 | 80 | 1009.0 |
| 20260506133307 | 3 | 240 | 16.1 | 0.0 | 0.00 | 0.00 | 0.00 | 80 | 1009.0 |
| 20260506130308 | 5 | 230 | 16.1 | 0.0 | 0.00 | 0.00 | 0.00 | 75 | 1009.0 |
| 20260506123307 | 5 | 200 | 11.3 | 0.0 | 0.00 | 0.00 | 0.00 | 81 | 1009.0 |
| 20260506120308 | 3 | 120 | 4.8 | 0.0 | 0.00 | 0.00 | 0.00 | 86 | 1009.0 |
| 20260506113308 | 3 | 10 | 8.0 | 0.0 | 0.00 | 0.00 | 0.00 | 80 | 1009.0 |
| 20260506110307 | 2 | 310 | 12.9 | 0.0 | 0.00 | 0.00 | 0.00 | 86 | 1008.0 |
| 20260506103306 | 3 | 250 | 12.9 | 0.0 | 0.00 | 0.00 | 0.00 | 80 | 1008.0 |
| 20260506100308 | 6 | 340 | 4.8 | 0.0 | 0.00 | 0.00 | 0.00 | 65 | 1008.0 |
| 20260506093307 | 5 | 0 | 0.0 | 0.0 | 0.00 | 0.00 | 0.00 | 65 | 1007.0 |
| 20260506090307 | 5 | 0 | 3.2 | 0.0 | 0.00 | 0.00 | 0.00 | 75 | 1007.0 |
| 20260506083307 | 3 | 20 | 4.8 | 0.0 | 0.00 | 0.00 | 0.00 | 80 | 1007.0 |
| 20260506073307 | 2 | 180 | 4.8 | 0.0 | 0.00 | 0.00 | 0.00 | 86 | 1007.0 |
| 20260506070306 | 2 | 160 | 8.0 | 0.0 | 0.00 | 0.00 | 0.00 | 86 | 1007.0 |
| 20260506060306 | 1 | 0 | 0.0 | 0.0 | 0.00 | 0.00 | 0.00 | 93 | 1006.0 |
| 20260506050306 | 0 | 140 | 3.2 | 0.0 | 0.00 | 0.00 | 0.00 | 10 | 1005.0 |
| 20260506043307 | 0 | 0 | 3.2 | 0.0 | 0.00 | 0.00 | 0.00 | 10 | 1005.0 |
| 20260506040307 | 0 | 0 | 0.0 | 0.0 | 0.00 | 0.00 | 0.00 | 10 | 1005.0 |
| 20260506033307 | 0 | 0 | 0.0 | 0.0 | 0.00 | 0.00 | 0.00 | 93 | 1005.0 |
| 20260506030307 | 0 | 0 | 3.2 | 0.0 | 0.00 | 0.00 | 0.00 | 93 | 1005.0 |
| 20260506023306 | 0 | 0 | 1.6 | 0.0 | 0.00 | 0.00 | 0.00 | 93 | 1004.0 |
| 20260506020306 | 0 | 360 | 3.2 | 0.0 | 0.00 | 0.00 | 0.00 | 93 | 1004.0 |
| 20260506013307 | 0 | 0 | 1.6 | 0.0 | 0.00 | 0.00 | 0.00 | 10 | 1004.0 |
| 20260506010307 | 0 | 0 | 0.0 | 0.0 | 0.00 | 0.00 | 0.00 | 93 | 1004.0 |
| 20260506003306 | 0 | 0 | 3.2 | 0.0 | 0.00 | 0.00 | 0.00 | 93 | 1003.0 |
| 20260506000307 | 0 | 0 | 0.0 | 0.0 | 0.00 | 0.00 | 0.00 | 10 | 1003.0 |
| 20260505233307 | 0 | 90 | 4.8 | 0.0 | 0.00 | 0.00 | 0.00 | 93 | 1003.0 |
| 20260505230306 | 0 | 0 | 0.0 | 0.0 | 0.00 | 0.00 | 0.00 | 93 | 1003.0 |
| 20260505223306 | 0 | 0 | 1.6 | 0.0 | 0.00 | 0.00 | 0.00 | 10 | 1003.0 |
| 20260505220306 | 0 | 0 | 0.0 | 0.0 | 0.00 | 0.00 | 0.00 | 10 | 1003.0 |
| 20260505213306 | 0 | 0 | 1.6 | 0.0 | 0.00 | 0.00 | 0.00 | 93 | 1003.0 |
| 20260505210306 | 0 | 0 | 1.6 | 0.0 | 0.00 | 0.00 | 0.00 | 93 | 1003.0 |
| 20260505203306 | 0 | 0 | 3.2 | 0.0 | 0.00 | 0.00 | 0.00 | 10 | 1003.0 |
| 20260505200306 | 0 | 80 | 4.8 | 0.0 | 0.00 | 0.00 | 0.00 | 10 | 1003.0 |